Time,TemperatureF,DewpointF,PressureIn,WindDirection,WindDirectionDegrees,WindSpeedMPH,WindSpeedGustMPH,Humidity,HourlyPrecipIn,Conditions,Clouds,dailyrainin,SoftwareType,DateUTC
2013-09-04 00:07:00,57.8,-99.9,49.58,ESE,118,0.0,-999.0,-999,-99.99,,,-99.99,,2013-09-03 23:07:00,
2013-09-04 00:17:00,57.3,-99.9,49.44,ESE,118,0.0,-999.0,-999,-99.99,,,-99.99,,2013-09-03 23:17:00,
2013-09-04 00:26:00,56.8,-99.9,49.46,ESE,118,0.0,-999.0,-999,-99.99,,,-99.99,,2013-09-03 23:26:00,
2013-09-04 00:37:00,56.5,-99.9,49.58,ESE,118,0.4,-999.0,-999,-99.99,,,-99.99,,2013-09-03 23:37:00,
2013-09-04 00:47:00,56.4,-99.9,49.39,ESE,113,0.0,-999.0,-999,-99.99,,,-99.99,,2013-09-03 23:47:00,
2013-09-04 00:57:00,56.3,-99.9,49.29,ESE,113,0.0,-999.0,-999,-99.99,,,-99.99,,2013-09-03 23:57:00,
2013-09-04 01:07:00,56.1,-99.9,49.45,ESE,113,0.0,-999.0,-999,-99.99,,,-99.99,,2013-09-04 00:07:00,
2013-09-04 01:17:00,56.3,-99.9,49.32,SE,143,0.1,-999.0,-999,-99.99,,,-99.99,,2013-09-04 00:17:00,
2013-09-04 01:26:00,55.9,-99.9,49.46,SE,143,0.2,-999.0,-999,-99.99,,,-99.99,,2013-09-04 00:26:00,
2013-09-04 01:37:00,55.3,-99.9,49.40,ENE,73,0.4,-999.0,-999,-99.99,,,-99.99,,2013-09-04 00:37:00,
2013-09-04 01:47:00,55.0,-99.9,49.56,SE,128,0.6,-999.0,-999,-99.99,,,-99.99,,2013-09-04 00:47:00,
2013-09-04 01:57:00,55.1,-99.9,49.61,SE,128,0.2,-999.0,-999,-99.99,,,-99.99,,2013-09-04 00:57:00,
2013-09-04 02:07:00,55.2,-99.9,49.60,SSE,163,1.6,-999.0,-999,-99.99,,,-99.99,,2013-09-04 01:07:00,
2013-09-04 02:17:00,55.0,-99.9,49.53,SE,138,0.9,-999.0,-999,-99.99,,,-99.99,,2013-09-04 01:17:00,
2013-09-04 02:27:00,54.9,-99.9,49.46,SSE,153,0.8,-999.0,-999,-99.99,,,-99.99,,2013-09-04 01:27:00,
2013-09-04 02:36:00,54.5,-99.9,49.44,SSE,158,0.7,-999.0,-999,-99.99,,,-99.99,,2013-09-04 01:36:00,
2013-09-04 02:47:00,54.5,-99.9,49.43,SSE,158,1.0,-999.0,-999,-99.99,,,-99.99,,2013-09-04 01:47:00,
2013-09-04 02:57:00,54.7,-99.9,49.47,South,178,2.3,-999.0,-999,-99.99,,,-99.99,,2013-09-04 01:57:00,
2013-09-04 03:07:00,54.9,-99.9,49.17,SSE,153,2.2,-999.0,-999,-99.99,,,-99.99,,2013-09-04 02:07:00,
2013-09-04 03:17:00,55.1,-99.9,49.07,SSE,148,1.8,-999.0,-999,-99.99,,,-99.99,,2013-09-04 02:17:00,
2013-09-04 03:27:00,55.4,-99.9,48.86,SSE,163,2.2,-999.0,-999,-99.99,,,-99.99,,2013-09-04 02:27:00,
2013-09-04 03:37:00,55.4,-99.9,48.62,South,173,1.2,-999.0,-999,-99.99,,,-99.99,,2013-09-04 02:37:00,
2013-09-04 03:47:00,55.4,-99.9,48.48,SSW,208,0.8,-999.0,-999,-99.99,,,-99.99,,2013-09-04 02:47:00,
2013-09-04 03:57:00,55.2,-99.9,48.45,SSE,168,2.6,-999.0,-999,-99.99,,,-99.99,,2013-09-04 02:57:00,
2013-09-04 04:06:00,55.3,-99.9,48.46,SSE,153,2.8,-999.0,-999,-99.99,,,-99.99,,2013-09-04 03:06:00,
2013-09-04 04:17:00,55.7,-99.9,48.45,South,178,5.3,-999.0,-999,-99.99,,,-99.99,,2013-09-04 03:17:00,
2013-09-04 04:27:00,55.4,-99.9,48.35,SSW,198,4.3,-999.0,-999,-99.99,,,-99.99,,2013-09-04 03:27:00,
2013-09-04 04:37:00,55.2,-99.9,48.52,South,173,3.5,-999.0,-999,-99.99,,,-99.99,,2013-09-04 03:37:00,
2013-09-04 04:47:00,55.4,-99.9,48.51,South,183,5.0,-999.0,-999,-99.99,,,-99.99,,2013-09-04 03:47:00,
2013-09-04 04:57:00,55.4,-99.9,48.45,South,188,5.7,-999.0,-999,-99.99,,,-99.99,,2013-09-04 03:57:00,
2013-09-04 05:07:00,55.4,-99.9,48.64,South,178,4.1,-999.0,-999,-99.99,,,-99.99,,2013-09-04 04:07:00,
2013-09-04 05:16:00,55.7,-99.9,48.49,SSW,198,6.4,-999.0,-999,-99.99,,,-99.99,,2013-09-04 04:16:00,
2013-09-04 05:27:00,56.0,-99.9,48.36,SSW,203,8.5,-999.0,-999,-99.99,,,-99.99,,2013-09-04 04:27:00,
2013-09-04 05:37:00,56.2,-99.9,48.22,SW,218,10.4,-999.0,-999,-99.99,,,-99.99,,2013-09-04 04:37:00,
2013-09-04 05:47:00,56.5,-99.9,48.47,SSW,213,12.7,-999.0,-999,-99.99,,,-99.99,,2013-09-04 04:47:00,
2013-09-04 05:57:00,56.6,-99.9,48.55,SSW,208,12.3,-999.0,-999,-99.99,,,-99.99,,2013-09-04 04:57:00,
2013-09-04 06:07:00,56.5,-99.9,48.41,SSW,213,12.4,-999.0,-999,-99.99,,,-99.99,,2013-09-04 05:07:00,
2013-09-04 06:17:00,56.4,-99.9,48.30,SSW,213,12.7,-999.0,-999,-99.99,,,-99.99,,2013-09-04 05:17:00,
2013-09-04 06:27:00,56.4,-99.9,48.55,SSW,213,11.7,-999.0,-999,-99.99,,,-99.99,,2013-09-04 05:27:00,
2013-09-04 06:37:00,56.1,-99.9,48.33,SSW,203,12.3,-999.0,-999,-99.99,,,-99.99,,2013-09-04 05:37:00,
2013-09-04 06:46:00,56.1,-99.9,48.11,SSW,208,13.9,-999.0,-999,-99.99,,,-99.99,,2013-09-04 05:46:00,
2013-09-04 06:57:00,56.3,-99.9,48.57,SSW,203,13.8,-999.0,-999,-99.99,,,-99.99,,2013-09-04 05:57:00,
2013-09-04 07:07:00,56.3,-99.9,48.48,SSW,208,10.4,-999.0,-999,-99.99,,,-99.99,,2013-09-04 06:07:00,
2013-09-04 07:17:00,56.3,-99.9,48.37,SW,218,5.0,-999.0,-999,-99.99,,,-99.99,,2013-09-04 06:17:00,
2013-09-04 07:27:00,56.4,-99.9,48.21,SW,223,4.3,-999.0,-999,-99.99,,,-99.99,,2013-09-04 06:27:00,
2013-09-04 07:37:00,56.5,-99.9,47.73,SW,228,5.8,-999.0,-999,-99.99,,,-99.99,,2013-09-04 06:37:00,
2013-09-04 07:47:00,56.8,-99.9,47.74,SW,228,5.4,-999.0,-999,-99.99,,,-99.99,,2013-09-04 06:47:00,
2013-09-04 07:56:00,57.3,-99.9,47.94,WSW,238,5.3,-999.0,-999,-99.99,,,-99.99,,2013-09-04 06:56:00,
2013-09-04 08:07:00,57.2,-99.9,47.82,SSW,203,8.0,-999.0,-999,-99.99,,,-99.99,,2013-09-04 07:07:00,
2013-09-04 08:17:00,56.8,-99.9,47.78,SSW,208,10.0,-999.0,-999,-99.99,,,-99.99,,2013-09-04 07:17:00,
2013-09-04 08:27:00,56.8,-99.9,47.91,SW,223,6.9,-999.0,-999,-99.99,,,-99.99,,2013-09-04 07:27:00,
2013-09-04 08:37:00,56.8,-99.9,48.16,SSW,198,10.3,-999.0,-999,-99.99,,,-99.99,,2013-09-04 07:37:00,
2013-09-04 08:47:00,56.6,-99.9,48.02,SSW,213,11.0,-999.0,-999,-99.99,,,-99.99,,2013-09-04 07:47:00,
2013-09-04 08:57:00,56.7,-99.9,48.32,SSW,213,11.5,-999.0,-999,-99.99,,,-99.99,,2013-09-04 07:57:00,
2013-09-04 09:07:00,57.1,-99.9,48.62,SSW,208,14.1,-999.0,-999,-99.99,,,-99.99,,2013-09-04 08:07:00,
2013-09-04 09:16:00,57.2,-99.9,48.80,SSW,203,16.9,-999.0,-999,-99.99,,,-99.99,,2013-09-04 08:16:00,
2013-09-04 09:27:00,57.4,-99.9,48.66,SSW,203,17.0,-999.0,-999,-99.99,,,-99.99,,2013-09-04 08:27:00,
2013-09-04 09:37:00,58.0,-99.9,48.60,SSW,203,17.3,-999.0,-999,-99.99,,,-99.99,,2013-09-04 08:37:00,
2013-09-04 09:47:00,58.5,-99.9,48.59,SSW,208,18.1,-999.0,-999,-99.99,,,-99.99,,2013-09-04 08:47:00,
2013-09-04 09:57:00,58.8,-99.9,48.74,SSW,203,17.2,-999.0,-999,-99.99,,,-99.99,,2013-09-04 08:57:00,
2013-09-04 10:07:00,59.0,-99.9,48.90,SSW,203,18.9,-999.0,-999,-99.99,,,-99.99,,2013-09-04 09:07:00,
2013-09-04 10:17:00,59.1,-99.9,48.97,SSW,208,18.3,-999.0,-999,-99.99,,,-99.99,,2013-09-04 09:17:00,
2013-09-04 10:27:00,58.7,-99.9,48.86,SSW,193,18.7,-999.0,-999,-99.99,,,-99.99,,2013-09-04 09:27:00,
2013-09-04 10:37:00,58.5,-99.9,48.82,SSW,193,17.7,-999.0,-999,-99.99,,,-99.99,,2013-09-04 09:37:00,
2013-09-04 10:47:00,58.6,-99.9,48.78,SSW,193,15.8,-999.0,-999,-99.99,,,-99.99,,2013-09-04 09:47:00,
2013-09-04 10:57:00,59.3,-99.9,49.02,SSW,193,15.3,-999.0,-999,-99.99,,,-99.99,,2013-09-04 09:57:00,
2013-09-04 11:07:00,59.6,-99.9,49.14,SSW,203,15.0,-999.0,-999,-99.99,,,-99.99,,2013-09-04 10:07:00,
2013-09-04 11:17:00,59.6,-99.9,49.08,SSW,198,13.2,-999.0,-999,-99.99,,,-99.99,,2013-09-04 10:17:00,
2013-09-04 11:26:00,59.7,-99.9,49.15,South,188,13.5,-999.0,-999,-99.99,,,-99.99,,2013-09-04 10:26:00,
2013-09-04 11:37:00,59.7,-99.9,49.29,South,188,17.7,-999.0,-999,-99.99,,,-99.99,,2013-09-04 10:37:00,
2013-09-04 11:47:00,60.2,-99.9,49.27,SSW,203,16.6,-999.0,-999,-99.99,,,-99.99,,2013-09-04 10:47:00,
2013-09-04 11:57:00,60.6,-99.9,49.43,SSW,193,16.6,-999.0,-999,-99.99,,,-99.99,,2013-09-04 10:57:00,
2013-09-04 12:07:00,61.0,-99.9,49.67,SSW,198,17.1,-999.0,-999,-99.99,,,-99.99,,2013-09-04 11:07:00,
2013-09-04 12:17:00,61.3,-99.9,49.70,SSW,203,17.1,-999.0,-999,-99.99,,,-99.99,,2013-09-04 11:17:00,
2013-09-04 12:27:00,61.5,-99.9,49.53,SSW,198,19.7,-999.0,-999,-99.99,,,-99.99,,2013-09-04 11:27:00,
2013-09-04 12:37:00,61.4,-99.9,49.87,SSW,203,20.4,-999.0,-999,-99.99,,,-99.99,,2013-09-04 11:37:00,
2013-09-04 12:46:00,61.0,-99.9,49.78,SSW,203,20.5,-999.0,-999,-99.99,,,-99.99,,2013-09-04 11:46:00,
2013-09-04 12:57:00,61.0,-99.9,49.70,SSW,208,21.4,-999.0,-999,-99.99,,,-99.99,,2013-09-04 11:57:00,
2013-09-04 13:07:00,61.2,-99.9,49.90,SSW,203,18.6,-999.0,-999,-99.99,,,-99.99,,2013-09-04 12:07:00,
2013-09-04 13:17:00,61.2,-99.9,49.83,SSW,208,19.9,-999.0,-999,-99.99,,,-99.99,,2013-09-04 12:17:00,
2013-09-04 13:27:00,61.4,-99.9,49.81,SSW,208,19.5,-999.0,-999,-99.99,,,-99.99,,2013-09-04 12:27:00,
2013-09-04 13:37:00,61.5,-99.9,49.92,SSW,198,21.4,-999.0,-999,-99.99,,,-99.99,,2013-09-04 12:37:00,
2013-09-04 13:47:00,62.1,-99.9,49.91,SSW,213,19.4,-999.0,-999,-99.99,,,-99.99,,2013-09-04 12:47:00,
2013-09-04 13:56:00,62.1,-99.9,49.96,SSW,208,21.3,-999.0,-999,-99.99,,,-99.99,,2013-09-04 12:56:00,
2013-09-04 14:07:00,62.1,-99.9,49.94,SSW,208,19.8,-999.0,-999,-99.99,,,-99.99,,2013-09-04 13:07:00,
2013-09-04 14:17:00,62.4,-99.9,49.86,SW,223,18.9,-999.0,-999,-99.99,,,-99.99,,2013-09-04 13:17:00,
2013-09-04 14:27:00,62.2,-99.9,49.79,SSW,203,18.6,-999.0,-999,-99.99,,,-99.99,,2013-09-04 13:27:00,
2013-09-04 14:36:00,62.4,-99.9,49.81,SSW,203,18.2,-999.0,-999,-99.99,,,-99.99,,2013-09-04 13:36:00,
2013-09-04 14:47:00,62.3,-99.9,49.82,SSW,203,17.4,-999.0,-999,-99.99,,,-99.99,,2013-09-04 13:47:00,
2013-09-04 14:57:00,62.3,-99.9,49.85,SSW,203,18.2,-999.0,-999,-99.99,,,-99.99,,2013-09-04 13:57:00,
2013-09-04 15:07:00,62.0,-99.9,49.74,SSW,203,19.6,-999.0,-999,-99.99,,,-99.99,,2013-09-04 14:07:00,
2013-09-04 15:17:00,62.3,-99.9,49.73,SSW,203,19.5,-999.0,-999,-99.99,,,-99.99,,2013-09-04 14:17:00,
2013-09-04 15:27:00,62.6,-99.9,49.66,SSW,203,18.1,-999.0,-999,-99.99,,,-99.99,,2013-09-04 14:27:00,
2013-09-04 15:37:00,62.9,-99.9,49.62,SW,223,16.8,-999.0,-999,-99.99,,,-99.99,,2013-09-04 14:37:00,
2013-09-04 15:46:00,62.9,-99.9,49.53,SSW,208,17.6,-999.0,-999,-99.99,,,-99.99,,2013-09-04 14:46:00,
2013-09-04 15:57:00,63.0,-99.9,49.51,SSW,203,17.3,-999.0,-999,-99.99,,,-99.99,,2013-09-04 14:57:00,
2013-09-04 16:07:00,63.1,-99.9,49.72,SW,228,16.4,-999.0,-999,-99.99,,,-99.99,,2013-09-04 15:07:00,
2013-09-04 16:17:00,62.9,-99.9,49.56,SSW,213,18.2,-999.0,-999,-99.99,,,-99.99,,2013-09-04 15:17:00,
2013-09-04 16:27:00,62.9,-99.9,49.44,SSW,208,17.2,-999.0,-999,-99.99,,,-99.99,,2013-09-04 15:27:00,
2013-09-04 16:37:00,62.8,-99.9,49.48,SSW,213,18.8,-999.0,-999,-99.99,,,-99.99,,2013-09-04 15:37:00,
2013-09-04 16:47:00,62.8,-99.9,49.58,SW,223,18.2,-999.0,-999,-99.99,,,-99.99,,2013-09-04 15:47:00,
2013-09-04 16:56:00,62.9,-99.9,49.72,SW,218,15.9,-999.0,-999,-99.99,,,-99.99,,2013-09-04 15:56:00,
2013-09-04 17:07:00,62.9,-99.9,49.57,SSW,198,16.6,-999.0,-999,-99.99,,,-99.99,,2013-09-04 16:07:00,
2013-09-04 17:17:00,62.6,-99.9,49.34,SSW,203,17.2,-999.0,-999,-99.99,,,-99.99,,2013-09-04 16:17:00,
2013-09-04 17:27:00,62.3,-99.9,49.38,SSW,203,20.7,-999.0,-999,-99.99,,,-99.99,,2013-09-04 16:27:00,
2013-09-04 17:37:00,62.4,-99.9,49.74,SSW,203,20.6,-999.0,-999,-99.99,,,-99.99,,2013-09-04 16:37:00,
2013-09-04 17:47:00,62.3,-99.9,49.88,SSW,198,18.9,-999.0,-999,-99.99,,,-99.99,,2013-09-04 16:47:00,
2013-09-04 17:57:00,62.2,-99.9,49.78,SSW,198,17.8,-999.0,-999,-99.99,,,-99.99,,2013-09-04 16:57:00,
2013-09-04 18:07:00,62.3,-99.9,49.80,SSW,203,13.6,-999.0,-999,-99.99,,,-99.99,,2013-09-04 17:07:00,
2013-09-04 18:16:00,62.3,-99.9,49.58,SSW,208,13.0,-999.0,-999,-99.99,,,-99.99,,2013-09-04 17:16:00,
2013-09-04 18:27:00,62.3,-99.9,49.53,SW,218,11.5,-999.0,-999,-99.99,,,-99.99,,2013-09-04 17:27:00,
2013-09-04 18:37:00,62.3,-99.9,49.55,SSW,208,12.1,-999.0,-999,-99.99,,,-99.99,,2013-09-04 17:37:00,
2013-09-04 18:47:00,62.2,-99.9,49.75,SSW,203,11.6,-999.0,-999,-99.99,,,-99.99,,2013-09-04 17:47:00,
2013-09-04 18:57:00,62.1,-99.9,49.72,SSW,213,9.4,-999.0,-999,-99.99,,,-99.99,,2013-09-04 17:57:00,
2013-09-04 19:07:00,61.9,-99.9,49.68,SSW,198,11.8,-999.0,-999,-99.99,,,-99.99,,2013-09-04 18:07:00,
2013-09-04 19:17:00,61.6,-99.9,49.45,SSW,198,11.8,-999.0,-999,-99.99,,,-99.99,,2013-09-04 18:17:00,
2013-09-04 19:27:00,61.3,-99.9,49.43,SSW,198,12.6,-999.0,-999,-99.99,,,-99.99,,2013-09-04 18:27:00,
2013-09-04 19:37:00,61.1,-99.9,49.22,SSW,203,13.2,-999.0,-999,-99.99,,,-99.99,,2013-09-04 18:37:00,
2013-09-04 19:46:00,60.9,-99.9,49.12,SSW,198,12.7,-999.0,-999,-99.99,,,-99.99,,2013-09-04 18:46:00,
2013-09-04 19:57:00,60.7,-99.9,48.91,SSW,198,11.9,-999.0,-999,-99.99,,,-99.99,,2013-09-04 18:57:00,
2013-09-04 20:07:00,60.7,-99.9,48.69,SSW,203,11.7,-999.0,-999,-99.99,,,-99.99,,2013-09-04 19:07:00,
2013-09-04 20:17:00,60.5,-99.9,48.60,SSW,198,11.6,-999.0,-999,-99.99,,,-99.99,,2013-09-04 19:17:00,
2013-09-04 20:27:00,60.4,-99.9,48.45,SSW,193,11.7,-999.0,-999,-99.99,,,-99.99,,2013-09-04 19:27:00,
2013-09-04 20:37:00,60.4,-99.9,48.68,SSW,193,11.3,-999.0,-999,-99.99,,,-99.99,,2013-09-04 19:37:00,
2013-09-04 20:47:00,60.2,-99.9,48.53,SSW,193,11.2,-999.0,-999,-99.99,,,-99.99,,2013-09-04 19:47:00,
2013-09-04 20:57:00,60.0,-99.9,48.40,South,183,9.8,-999.0,-999,-99.99,,,-99.99,,2013-09-04 19:57:00,
2013-09-04 21:06:00,59.9,-99.9,48.38,South,183,10.6,-999.0,-999,-99.99,,,-99.99,,2013-09-04 20:06:00,
2013-09-04 21:17:00,59.9,-99.9,48.20,South,188,10.8,-999.0,-999,-99.99,,,-99.99,,2013-09-04 20:17:00,
2013-09-04 21:27:00,59.9,-99.9,48.19,South,188,9.8,-999.0,-999,-99.99,,,-99.99,,2013-09-04 20:27:00,
2013-09-04 21:37:00,59.9,-99.9,48.32,South,188,9.8,-999.0,-999,-99.99,,,-99.99,,2013-09-04 20:37:00,
2013-09-04 21:47:00,59.9,-99.9,48.36,SSW,198,10.3,-999.0,-999,-99.99,,,-99.99,,2013-09-04 20:47:00,
2013-09-04 21:57:00,59.9,-99.9,48.43,SSW,193,11.3,-999.0,-999,-99.99,,,-99.99,,2013-09-04 20:57:00,
2013-09-04 22:07:00,59.8,-99.9,48.12,SSW,193,10.5,-999.0,-999,-99.99,,,-99.99,,2013-09-04 21:07:00,
2013-09-04 22:17:00,59.7,-99.9,48.16,SSW,193,10.9,-999.0,-999,-99.99,,,-99.99,,2013-09-04 21:17:00,
2013-09-04 22:26:00,59.7,-99.9,48.36,SSW,198,10.6,-999.0,-999,-99.99,,,-99.99,,2013-09-04 21:26:00,
2013-09-04 22:37:00,59.8,-99.9,48.65,SSW,198,10.3,-999.0,-999,-99.99,,,-99.99,,2013-09-04 21:37:00,
2013-09-04 22:47:00,59.9,-99.9,48.90,SSW,203,8.3,-999.0,-999,-99.99,,,-99.99,,2013-09-04 21:47:00,
2013-09-04 22:57:00,59.8,-99.9,48.78,South,173,7.2,-999.0,-999,-99.99,,,-99.99,,2013-09-04 21:57:00,
2013-09-04 23:07:00,59.5,-99.9,48.62,South,178,6.9,-999.0,-999,-99.99,,,-99.99,,2013-09-04 22:07:00,
2013-09-04 23:17:00,59.4,-99.9,48.68,South,183,6.1,-999.0,-999,-99.99,,,-99.99,,2013-09-04 22:17:00,
2013-09-04 23:27:00,59.5,-99.9,48.52,SSW,193,5.7,-999.0,-999,-99.99,,,-99.99,,2013-09-04 22:27:00,
2013-09-04 23:37:00,59.8,-99.9,48.71,SSW,203,6.3,-999.0,-999,-99.99,,,-99.99,,2013-09-04 22:37:00,
2013-09-04 23:47:00,61.4,-99.9,48.81,SW,228,8.8,-999.0,-999,-99.99,,,-99.99,,2013-09-04 22:47:00,
2013-09-04 23:56:00,62.9,-99.9,48.76,SW,228,8.4,-999.0,-999,-99.99,,,-99.99,,2013-09-04 22:56:00,